Regional Weather Roundup
Issued by NWS Jackson, KY

Home | Current Version | Previous Version | Text Only | Print | Product List | Glossary Off
Versions: 1 2 3 4 5 6 7 8 9 10 11 12 13 14 15 16 17 18 19 20 21 22 23 24 25 26 27 28

000
ASUS43 KJKL 280310
RWRJKL

EAST KENTUCKY HOURLY WEATHER ROUNDUP
NATIONAL WEATHER SERVICE JACKSON KY
1100 PM EDT SAT MAY 27 2017

NOTE: "FAIR" INDICATES FEW OR NO CLOUDS BELOW 12,000 FEET WITH
NO SIGNIFICANT WEATHER AND/OR OBSTRUCTIONS TO VISIBILITY.

* THESE REPORTS ARE NOT UNDER NWS QUALITY CONTROL AND MAY NOT
  REPORT WEATHER SUCH AS PRECIPITATION AND FOG.

KYZ079-080-083-085-087-088-110-112-115-119-120-280400
...EASTERN KENTUCKY...

CITY           SKY/WX    TMP DP  RH WIND       PRES   REMARKS
JACKSON        LGT RAIN  65  63  93 VRB3      29.95R
SOMERSET*      LGT RAIN  61  61 100 S3        29.95F
MONTICELLO*    LGT RAIN  64  63  96 NW9       29.98F
WILLIAMSBURG*  CLOUDY    63  63 100 SW5       30.00F
MIDDLESBORO*   HVY RAIN  64  62  93 CALM      30.00R
HARLAN APT*    CLOUDY    63  61  94 CALM      29.99F
PIKE CO APT*     N/A     67  67 100 CALM      29.92R
BIG SANDY APT* CLOUDY    67  64  89 SW5       29.91R
MOREHEAD APT*  CLOUDY    68  64  88 SW8       29.92R
ASHLAND*       CLOUDY    66  64  94 CALM      29.85S
$$

KYZ035-036-041-042-044-050-067-078-099-280400
...CENTRAL KENTUCKY...

CITY           SKY/WX    TMP DP  RH WIND       PRES   REMARKS
MT STERLING*   CLOUDY    68  64  88 W10G18    29.93R
FLEMING/MASON* CLOUDY    68  66  93 SW12      29.89S
DANVILLE*      LGT RAIN  63  61  94 S7        29.92F
LEXINGTON      CLOUDY    67  61  81 CALM      29.92F
FRANKFORT      CLOUDY    66  62  87 S9        29.87F
LOUISVILLE     CLOUDY    68  64  87 S5        29.87R
LEBANON*         N/A     66  61  82 S9        29.90F
GLASGOW*       CLOUDY   N/A N/A N/A S6        29.92F
BOWLING GREEN  CLOUDY    66  64  93 SE7       29.88F
$$

KYZ091>093-OHZ055-061-077-WVZ005-015-034-035-042-280400
...SOUTHERN OHIO/WEST VIRGINIA...

CITY           SKY/WX    TMP DP  RH WIND       PRES   REMARKS
COVINGTON      CLOUDY    72  66  81 S14       29.85R
COLUMBUS       CLOUDY    71  66  84 E6        29.84F
DAYTON         CLOUDY    69  64  84 N5        29.85F
WILMINGTON     CLOUDY    72  69  90 SE6       29.84S
HUNTINGTON     CLOUDY    66  63  90 CALM      29.87R
CHARLESTON     MOCLDY    72  65  78 CALM      29.88R
PINEVILLE*     PTCLDY    66  65  96 MISG      29.98R FOG
BECKLEY        CLOUDY    67  63  87 SW3       29.95S
BLUEFIELD      CLOUDY    61  59  93 W5        29.98F
LOGAN CO APT*    N/A     70  66  88 CALM      29.92R
$$

VAZ002-007-008-TNZ017-027-036-066-071-280400
...SOUTHWEST VIRGINIA/EAST TENNESSEE...

CITY           SKY/WX    TMP DP  RH WIND       PRES   REMARKS
WISE*          CLOUDY    61  61 100 CALM      30.01R
JONESVILLE*    RAIN      64  63  94 S6        30.00R
ABINGDON*      LGT RAIN  63  62  99 S6        29.98F
BRISTOL        TSTM      63  62  97 CALM      30.00R FOG
MORRISTOWN*    CLOUDY    73  70  88 W7        29.94R HAZE
SEVIERVILLE*   PTCLDY    73  66  78 CALM      29.91R
KNOXVILLE      TSTM      65  61  87 W14G28    30.02R FOG
LAFOLLETTE*    CLOUDY    66  63  88 CALM      30.02F FOG
OAK RIDGE      HVY RAIN  67  60  78 CALM      30.01R
CROSSVILLE     CLOUDY    61  60  97 NE7       30.04S
NASHVILLE      CLOUDY    66  63  90 W5        29.92F THUNDER
$$

...KEY TO REMARKS...
VSB - VISIBILITY IN MILES
WCI - WIND CHILL INDEX
HX  - HEAT INDEX

$$




USA.gov is the U.S. government's official web portal to all federal, state and local government web resources and services.